User: anonymous   Login
Location: Owatonna
(44.0840°N, 93.2260°W)
Time: 01:25:43
(UTC-05:00)
Language:

Tiangong 1 - Orbit

View from above orbital plane
View from above orbital plane
View from above satellite
View from above satellite

Ground track
Ground track

The orbit data is extracted from the following two-line orbital elements,

1 37820U 11053A   17264.52958319  .00047249  00000-0  19268-3 0  9997
2 37820  42.7576 327.8132 0018875  41.7876  96.1778 15.85064817343228
Epoch (UTC): 21 September 2017 12:42:35
Eccentricity: 0.0018875
inclination: 42.7576°
perigee height: 303 km
apogee height: 329 km
right ascension of ascending node: 327.8132°
argument of perigee: 41.7876°
revolutions per day: 15.85064817
mean anomaly at epoch: 96.1778°
orbit number at epoch: 34322

The dashed part of the orbit path shows where the satellite is in the earth's shadow,  

DLR